Regional Weather Roundup
Issued by NWS

Home | Current Version | Previous Version | Graphics & Text | Print | Product List | Glossary On
Versions: 1 2 3 4 5 6 7 8 9 10 11 12 13 14 15 16 17 18 19 20 21 22 23 24 25 26 27 28 29 30 31 32 33 34 35 36 37 38 39 40 41 42 43 44 45 46 47 48 49 50
000
ASUS43 KLMK 221910
RWRKY
KENTUCKY REGIONAL WEATHER ROUNDUP
NATIONAL WEATHER SERVICE LOUISVILLE KY
300 PM EDT WED MAR 22 2017

NOTE "FAIR" INDICATES FEW OR NO CLOUDS BELOW 12,000 FEET
WITH NO SIGNIFICANT WEATHER AND/OR OBSTRUCTIONS TO VISIBILITY.

KYZ001>023-026-027-061>063-070>075-222000-
WESTERN AND SOUTH CENTRAL KENTUCKY

CITY           SKY/WX    TMP DP  RH WIND       PRES   REMARKS
PADUCAH        MOSUNNY   54  24  31 E13       30.36F
HENDERSON      SUNNY     50  18  27 NE9G18    30.39F
OWENSBORO      SUNNY     50  19  29 NE10G22   30.40F
HOPKINSVILLE   SUNNY     54  26  33 NE12G20   30.33F
BOWLING GREEN  SUNNY     53  17  24 NE9G17    30.36F
GLASGOW        SUNNY     49  19  29 NE7       30.36F
$$

KYZ024-025-028>034-038-045-046-053-222000-
NORTH CENTRAL KENTUCKY

CITY           SKY/WX    TMP DP  RH WIND       PRES   REMARKS
LOUISVILLE/SDF MOSUNNY   49  12  22 NE14      30.42F
LOUISVILLE/LOU SUNNY     48  15  26 N12G17    30.43F
FORT KNOX      SUNNY     47  13  25 N12G20    30.38F
$$

KYZ035>037-039>044-047>052-055>060-089>105-222000-
NORTHEAST KENTUCKY

CITY           SKY/WX    TMP DP  RH WIND       PRES   REMARKS
LEXINGTON      SUNNY     47  16  29 N14       30.41F
COVINGTON      SUNNY     40  16  37 NE16      30.46F WCI  31
FRANKFORT      SUNNY     47   8  20 NE10G16   30.41F
$$

KYZ054-064>069-076>088-106>120-222000-
SOUTHEAST KENTUCKY

CITY           SKY/WX    TMP DP  RH WIND       PRES   REMARKS
JACKSON        SUNNY     49  18  29 NE6       30.35F
LONDON         SUNNY     50  12  21 NE14G21   30.33F
SOMERSET       SUNNY     46  19  34 N14G23    30.36F
MIDDLESBORO    SUNNY     55  20  25 NE8G16    30.29F
MONTICELLO     CLEAR     49  20  31 N24       30.36F
$$





USA.gov is the U.S. government's official web portal to all federal, state and local government web resources and services.